User: anonymous   Login
Location: Brunembert
(50.7122°N, 1.8935°E)
Time: 00:02:58
(UTC+00:00)
Language:

Genesis I - Orbit

View from above orbital plane
View from above orbital plane
View from above satellite
View from above satellite

Ground track
Ground track

The orbit data is extracted from the following two-line orbital elements,

1 29252U 06029A   21169.41163509  .00000560  00000-0  36436-4 0  9992
2 29252  64.5200 184.1692 0044260 316.4721  43.2912 15.18689215823662
Epoch (UTC): 18 June 2021 09:52:45
Eccentricity: 0.0044260
inclination: 64.5200°
perigee height: 479 km
apogee height: 540 km
right ascension of ascending node: 184.1692°
argument of perigee: 316.4721°
revolutions per day: 15.18689215
mean anomaly at epoch: 43.2912°
orbit number at epoch: 82366

The dashed part of the orbit path shows where the satellite is in the earth's shadow,  

DLR